Regional Weather Roundup
Issued by NWS Bismarck, ND

Home | Current Version | Previous Version | Text Only | Print | Product List | Glossary On
Versions: 1 2 3 4 5 6 7 8 9 10 11 12 13 14 15 16 17 18 19 20 21 22 23 24 25 26 27 28 29 30 31 32 33 34 35 36 37 38 39 40 41 42 43 44 45 46 47 48 49 50
974
ASUS43 KBIS 121010
RWRBIS

NWR BROADCAST TEXT
NATIONAL WEATHER SERVICE BISMARCK ND
400 AM CST FRI FEB 12 2016

NOTE: "FAIR" INDICATES FEW OR NO CLOUDS BELOW 12,000 FEET WITH NO
SIGNIFICANT WEATHER AND/OR OBSTRUCTIONS TO VISIBILITY.


CITY           SKY/WX    TMP DP  RH WIND       PRES   REMARKS
WILLISTON      CLOUDY    14   8  77 N15       30.44R WCI  -1
MINOT          CLOUDY     4  -5  66 NW13      30.45R WCI -13
MINOT AFB      CLOUDY     2  -5  74 NW3       30.46R
BISMARCK       CLOUDY    19  11  70 N8        30.40R WCI   9
DICKINSON      CLOUDY    18  12  77 N9        30.33R WCI   7
GARRISON         N/A      7   1  76 N7        30.42R WCI  -5
HETTINGER ARPT CLOUDY    22  19  89 NW6       30.34R FOG     WCI  14
JAMESTOWN      CLOUDY     6   1  80 N14       30.39R WCI -11
BEACH          CLOUDY    19  18  93 NE7       30.38R WCI  10
CARRINGTON     FAIR       5   1  85 N10       30.42R WCI -10
HAZEN          CLOUDY    10   5  79 N15       30.44R WCI  -6
LINTON         CLOUDY    16  16 100 N10       30.39R WCI   3
MANDAN         FLURRIES  16  12  86 N12       30.39R WCI   3
OAKES          CLOUDY    10   7  85 N15       30.38R WCI  -6
RUGBY          FAIR      -4  -8  84 N9        30.44R WCI -20
STANLEY        FAIR       5   0  78 NE9       30.43R WCI  -9
TIOGA          FAIR       5   3  92 N9        30.47R WCI  -9
WATFORD CITY   FLURRIES  16  10  79 N13       30.42R WCI   2
$$

CITY           SKY/WX    TMP DP  RH WIND       PRES   REMARKS
GRAND FORKS    CLEAR      2  -7  66 N18       30.43R WCI -19
GRAND FORKS AF CLEAR      1  -8  66 N18       30.44R WCI -20
DEVILS LAKE    CLOUDY    -3  -7  82 N12       30.43R WCI -21
FARGO          CLEAR      5  -4  66 N17       30.41R WCI -14
CAVALIER       FAIR       0  -8  71 N16G22    30.47R WCI -21
GRAFTON        FAIR       0  -8  71 N20G25    30.47R WCI -22
GWINNER        CLOUDY    12   9  85 N15       30.38R WCI  -4
LANGDON        FAIR     -11 -17  77 NW12      30.40R WCI -31
ROLLA          FAIR     -11 -17  77 NW10      30.42R WCI -30
WALHALLA       FAIR       0  -8  71 N20G25    30.48R WCI -22
$$

CITY           SKY/WX    TMP DP  RH WIND       PRES   REMARKS
ABERDEEN       CLOUDY    15   8  73 N14       30.38R WCI   0
MOBRIDGE       CLOUDY    21  16  81 MISG      30.34R
BUFFALO          N/A     28  22  78 N12       30.23R WCI  18
RAPID CITY     CLOUDY    31  28  89 NW3       30.28R
GLASGOW        CLOUDY    24  19  81 E14       30.38R WCI  12
SIDNEY         CLOUDY    19  12  73 NE9       30.42R WCI   9
WOLF POINT     CLOUDY    22  14  71 E13       30.43R WCI  10
GLENDIVE       CLOUDY    21  18  86 NE13      30.39R WCI   9
MILES CITY     CLOUDY    31  26  82 CALM      30.33R
BAKER          CLOUDY    25  21  85 NW6       30.33R WCI  18
$$

CITY           SKY/WX    TMP DP  RH WIND       PRES   REMARKS
BILLINGS       PTCLDY    33  29  85 N3        30.28R
GREAT FALLS    CLOUDY    32  29  88 N5        30.24S
REGINA         CLEAR      0  -4  85 W3        30.51R
$$





USA.gov is the U.S. government's official web portal to all federal, state and local government web resources and services.